Location: Unspecified
(0.0000°N, 0.0000°E)
Time: 05:11:10
(UTC+00:00)

Vanguard 1 - Pass Details

Date: 12 October 2023
Orbit: 649 x 3825 km, 34.2° (Epoch: 11 September)

Event Time Altitude Azimuth Distance (km) Brightness Sun altitude
Rises 00:25:47 0° 225° (SW) 7,614 14.6 -77.9°
Enters shadow 00:34:38 10° 207° (SSW) 6,076 14.0 -76.0°
Exits shadow 00:53:15 - 131° (SE) 4,545 13.6 -71.9°
Sets 00:55:57 0° 119° (ESE) 4,830 13.9 -71.3°
